This is the latest recevied weather packets stored in our database for station/object KC8SWY-15. If no packets are shown the sender has not sent any weather packets the latest 1 day(s).
| Time | Temp. | Humidity | Pressure | Rain* | Wind** | Luminosity | Snow |
|---|---|---|---|---|---|---|---|
| 1778114663 | 10° C | 46% | 1013.9 hPa | 0 mm | - | - | - |
| 1778114363 | 10.56° C | 45% | 1013.9 hPa | 0 mm | - | - | - |
| 1778114063 | 10.56° C | 43% | 1013.9 hPa | 0 mm | - | - | - |
| 1778113763 | 10.56° C | 44% | 1013.9 hPa | 0 mm | - | - | - |
| 1778113463 | 10.56° C | 43% | 1013.9 hPa | 0 mm | - | - | - |
| 1778113163 | 10.56° C | 43% | 1013.9 hPa | 0 mm | - | - | - |
| 1778112863 | 10.56° C | 42% | 1013.7 hPa | 0 mm | - | - | - |
| 1778112563 | 10.56° C | 42% | 1013.7 hPa | 0 mm | - | - | - |
| 1778112263 | 10.56° C | 41% | 1013.7 hPa | 0 mm | - | - | - |
| 1778111663 | 10.56° C | 42% | 1013.8 hPa | 0 mm | - | - | - |
| 1778111363 | 11.11° C | 40% | 1013.8 hPa | 0 mm | - | - | - |
| 1778111063 | 11.11° C | 40% | 1013.8 hPa | 0 mm | - | - | - |
| 1778110463 | 11.11° C | 40% | 1013.7 hPa | 0 mm | - | - | - |
| 1778110163 | 11.11° C | 39% | 1013.8 hPa | 0 mm | - | - | - |
| 1778109863 | 11.11° C | 40% | 1013.7 hPa | 0 mm | - | - | - |
| 1778109563 | 11.11° C | 39% | 1013.7 hPa | 0 mm | - | - | - |
| 1778109263 | 11.11° C | 40% | 1013.8 hPa | 0 mm | - | - | - |
| 1778108963 | 11.11° C | 39% | 1013.8 hPa | 0 mm | - | - | - |
| 1778105063 | 11.67° C | 39% | 1013.7 hPa | 0 mm | - | - | - |
| 1778101464 | 11.67° C | 38% | 1013.9 hPa | 0 mm | - | - | - |
| 1778096064 | 11.67° C | 37% | 1014.4 hPa | 0 mm | - | - | - |
| 1778095464 | 11.67° C | 35% | 1014.4 hPa | 0 mm | - | - | - |
| 1778095164 | 11.67° C | 39% | 1014.2 hPa | 0 mm | - | - | - |
| 1778094864 | 11.67° C | 41% | 1014.2 hPa | 0 mm | - | - | - |
| 1778094564 | 11.67° C | 39% | 1014.2 hPa | 0 mm | - | - | - |
* Rain latest hour (hover to see other rain measurements)
** Current wind speed in m/s (hover to see current wind gust speed)